181  
ASUS41 KAKQ 230614  
RWRAKQ  
 
REGIONAL WEATHER ROUNDUP  
NATIONAL WEATHER SERVICE WAKEFIELD VA  
200 AM EDT THU MAR 23 2017  
 
NOTE: "FAIR" INDICATES FEW OR NO CLOUDS BELOW 12,000 FEET WITH NO  
SIGNIFICANT WEATHER AND/OR S TO VISIBILITY
. * = DENOTES  
STATION MAY NOT REPORT PRECIPITATION (E.G., RAIN,SNOW,ETC.),
 
THUNDER OR FOG.  
 
VAZ042-051-052>054-056-230700-  
NORTHERN VIRGINIA  
 
CITY SKY/WX TMP DP RH WIND PRES REMARKS
 
WASH NATIONAL CLEAR 35 7 31 NE10 30.51R  
DULLES PTCLDY 32 6 33 N8 30.49S  
FORT BELVOIR CLEAR 33 5 30 N5 30.50R  
QUANTICO CLEAR 37 11 34 NE10 30.51R  
FREDERICKSBRG* PTCLDY 35 13 40 N3 30.50R  
STAFFORD* PTCLDY 29 13 50 CALM 30.54R  
WARRENTON CLEAR 28 11 48 CALM 30.49R  
CULPEPER* PTCLDY 32 11 42 CALM 30.51R  
MANASSAS* CLEAR 32 10 40 N6 30.50R  
LEESBURG* CLEAR 30 18 59 N3 30.50S  
WINCHESTER CLEAR 28 7 40 CALM 30.49R  
FRONT ROYAL* CLOUDY 30 10 43 CALM 30.48R  
LURAY* CLOUDY 32 18 55 CALM 30.46S  

 
 
VAZ048-049-060>072-079>083-230700-  
CENTRAL AND SOUTH CENTRAL VIRGINIA  
 
CITY SKY/WX TMP DP RH WIND PRES REMARKS
 
RICHMOND CLEAR 36 11 35 N3 30.48R  
CHESTERFIELD* FAIR 36 3 25 N5 30.49R  
PETERSBURG* PTCLDY 29 16 58 CALM 30.49R  
HANOVER PTCLDY 31 12 45 CALM 30.50R  
TAPPAHANNOCK* PTCLDY 36 -6 16 N5 30.49R  
QUINTON* FAIR 32 14 47 CALM 30.48R  
CHARLOTTSVILLE PTCLDY 35 7 31 E3 30.46R  
GORDONSVILLE* CLOUDY 30 15 53 CALM 30.47R  
ORANGE* MOCLDY 32 10 40 NE6 30.49R  
LOUISA* CLOUDY 30 16 55 NE5 30.47R  
BUMPASS* FAIR 33 8 34 CALM 30.48R  
FARMVILLE* CLEAR 30 17 59 CALM 30.47R  
CREWE* FAIR 30 17 57 CALM 30.48R  
FORT PICKETT* FAIR 33 2 27 CALM 30.47R  
CHASE CITY* FAIR 35 8 32 CALM 30.47R  
CLARKSVILLE* FAIR 37 14 38 NE3 30.46S  
SOUTH HILL* CLEAR 30 19 65 CALM 30.52S  
LAWRENCEVILLE* FAIR 33 11 39 CALM 30.47S  
EMPORIA* CLEAR 28 21 74 CALM 30.50R  

 
 
VAZ088>098-230700-  
SOUTHEAST VIRGINIA  
 
CITY SKY/WX TMP DP RH WIND PRES REMARKS
 
NORFOLK CLEAR 39 19 44 NE12 30.47R  
VIRGINIA BEACH CLEAR 37 17 44 NE9 30.46R  
NORFOLK NAVAL CLEAR 39 13 34 NE12 30.48R  
WEST POINT* CLEAR 31 16 54 CALM 30.51R  
SALUDA* FAIR 35 17 47 E5 30.48R  
NEWPORT NEWS CLEAR 36 19 50 NE8 30.48R  
LANGLEY AFB CLEAR 36 21 54 NE10 30.47R  
FORT EUSTIS CLEAR 35 14 41 E3 30.45R  
WILLIAMSBURG* CLEAR 34 21 60 CALM 30.49R  
HR EXEC AP* FAIR 34 19 55 E6 30.46S  
FRANKLIN* CLEAR 28 19 71 CALM 30.48R  
US460-WAKEFLD CLEAR 28 18 66 CALM 30.47S  

 
 
VAZ020-022-025-037-045-230700-  
WEST CENTRAL AND SOUTHWEST VIRGINIA  
 
CITY SKY/WX TMP DP RH WIND PRES REMARKS
 
STAUNTON* CLOUDY 27 10 47 CALM 30.48R  
WAYNESBORO* CLOUDY 30 9 41 N3 30.44R  
HOT SPRINGS VA CLOUDY 27 3 36 CALM 30.34R  
LYNCHBURG CLOUDY 31 12 45 CALM 30.47R  
DANVILLE CLEAR 30 16 56 CALM 30.47R  
SOUTH BOSTON* FAIR 35 11 38 CALM 30.48R  
MARTINSVILLE CLEAR 31 17 56 CALM 30.48R  
ROANOKE CLOUDY 38 12 34 NE3 30.46R  
BLACKSBURG CLOUDY 29 20 68 CALM 30.44R  
DUBLIN* CLEAR 31 17 55 CALM 30.42R  
MARION* CLEAR 30 18 61 CALM 30.41F  
HILLSVILLE* CLEAR 32 14 47 CALM 30.38R  
RICHLANDS* FAIR 33 14 46 CALM 30.35F  
WISE* CLEAR 32 14 47 CALM 30.35F  
ABINGDON* CLEAR 38 18 44 E8 30.37S  

 
 
MDZ021>025-VAZ099-100-230700-  
SOUTHERN MARYLAND AND THE DELMARVA PENINSULA  
 
CITY SKY/WX TMP DP RH WIND PRES REMARKS
 
PATUXENT RIVER PTCLDY 32 10 40 NE17 30.49R WCI 21  
BAY BRIDGE APT CLEAR 30 5 34 N5 30.51R  
LEONARDTOWN PTCLDY 32 14 47 NE5 30.50S  
DOVER PTCLDY 26 8 45 N10 30.49S WCI 16  
GEORGETOWN CLEAR 31 6 35 N10 30.49S WCI 22  
EASTON CLEAR 30 5 34 NE7 30.53S  
CAMBRIDGE CLEAR 32 3 29 N9 30.50R  
SALISBURY CLEAR 29 7 39 N9 30.48R  
OCEAN CITY CLEAR 32 9 38 N13G21 30.48R WCI 22  
WALLOPS ISLAND CLEAR 30 9 41 N7 30.49R  
ACCOMACK* CLOUDY 32 7 35 N7 30.47R  

 
 
NCZ012>017-030>032-230700-  
NORTH CENTRAL AND EASTERN NORTH CAROLINA  
 
CITY SKY/WX TMP DP RH WIND PRES REMARKS
 
ROANOKE RAPIDS FAIR 32 19 59 CALM 30.47S  
RALEIGH PTCLDY 39 15 37 E7 30.45S  
ELIZABETH CITY PTCLDY 39 23 52 NE8 30.47R  
AHOSKIE* NOT AVBL  
EDENTON* PTCLDY 37 26 64 CALM 30.48R  
CURRITUCK* PTCLDY 40 20 43 NE8 30.47S  
KILL DEVIL HLS NOT AVBL  
MANTEO PTCLDY 40 26 59 NE9 30.46S  
CAPE HATTERAS CLEAR 43 25 49 NE9 30.45R  
TARBORO* NOT AVBL  
GOLDSBORO PTCLDY 37 26 66 E5 30.44R  
WASHINGTON CLEAR 36 28 73 CALM 30.47S  
GREENVILLE PTCLDY 32 30 93 CALM 30.47R  
NEW BERN CLEAR 40 29 64 NE10 30.46R  
WILMINGTON CLEAR 39 29 67 NE7 30.42R  

 
 
VAZ048-230700-  
ELSEWHERE  
 
CITY SKY/WX TMP DP RH WIND PRES REMARKS
 
HARRISBURG PA CLEAR 27 4 37 N5 30.50R  
BALTIMORE CLEAR 30 3 31 NE5 30.50R  
ANNAPOLIS PTCLDY 34 11 38 NE5 30.50S  
ANDREWS AFB CLEAR 28 7 41 NE5 30.48R  
PHILADELPHIA PTCLDY 26 1 34 N13 30.53R WCI 15  
HENDERSON NC CLEAR 32 17 53 CALM 30.46R  
GREENSBORO CLEAR 38 14 37 E8 30.43R  
ROCKY MOUNT CLEAR 34 23 64 NE3 30.47R  

 
 
VAZ100-230700-  
MARINE  
 
STATION/POSITION TIME TEMP WIND PRES WAVE SWELL
 
AIR SEA DIR/SP/G HT/PER HT/PER  
(UTC) (F) (DEG/KT/KT) (MB) (FT/S) (FT/S)  
CAPE MAY NJ 0548 42 10/ 6/ 19 1032.3R  
LEWES DE 0548 42 20/ 20/ 24 1032.8R  
OCEAN-CITY-INLET 0548 45 30/ 12/ 19 1032.4R  
WACHAPREAGUE VA 0548 49 30/ 8/ 11 1031.5S  
THOMAS POINT MD 0600 34 43 30/ 16/ 19 N/A  
GOOSES REEF MD 0550 35 80/ 16/ 19 1032.8R  
COVE POINT MD 0548 50/ 15/ 19 1033.1R  
BISHOPS HEAD MD 0548 44 30/ 14/ 19 1032.6R  
PINEY POINT MD 0548 70/ 7/ 10 N/A  
POTOMAC MD 0550 36 30/ 16/ 17 1032.0R  
CAMBRIDGE MD 0548 44 20/ 12/ 14 1031.9R  
LEWISETTA VA 0542 48 50/ 9/ 14 1032.1R  
RAPPAHANNOCK LGT 0548 30/ 22/ 24 1032.4R  
STINGRAY PT 0550 38 60/ 16/ 19 1032.0R  
YORK RVR RNG VA 0548 50/ 16/ 18 1031.3R  
YORKTOWN VA 0548 49 40/ 11/ 13 1031.7R  
JAMESTOWN VA 0550 38 40/ 2/ 2 N/A  
DOMINION TERM VA 0548 50/ 3/ 8 1031.9R  
KIPTOPEKE VA 0548 46 70/ 5/ 9 N/A  
CHES BAY BRIDGE 0548 47 50/ 13/ 15 1031.7R  
CAPE HENRY VA 0548 30/ 16/ 19 N/A  
WILLOUBY STN VA 0548 50/ 12/ 15 1032.7R  
S CRANEY ISL VA 0548 60/ 11/ 13 1031.4R  
CAPE HENRY BUOY 0542 45 N/A 6/ 7 2/11  
CAPE CHARLES BUO 0551 45 N/A 5/ 7 2/11  
OFFSHORE WE BUOY 0551 46 N/A 8/ 8  
64NM E OF VA BCH 0550 42 49 20/ 21/ 25 1030.4R 10/ 8  
DUCK PIER NC 0548 48 30/ 16/ 19 1030.7S  
44100 DUCK FRF 0535 47 N/A 7/ 8 2/11  
44056 DUCK FRF 0530 47 N/A 6/ 8 2/11  
OREGON INLET NC 0542 51 20/ 12/ 15 1031.2R  
HATTERAS NC 0548 54 40/ 9/ 12 1030.5R  
DIAMOND SHLS NC 0550 47 74 20/ 21/ 27 1030.0R 9/10 7/10  
CAPE LOOKOUT NC 0500 47 30/ 17/ 21 1029.9R  

 
 
 
CLICK HERE TO GO TO PREVIOUS BULLETINS.

The Nexlab VA Page
The Nexlab NC Page
The Nexlab MD Page Main Text Page